DW3310 Weather Reports


Display with metric or nautical units.
time (UTC)temp
F
wind
direction
speed
MPH
gust
MPH
rain 1hr
in
rain 24hr
in
rain mn
in
humidity
%
barometer
mb
20260902210030 66 141 6.0 12.0 0.00 0.00 0.00 63 1021.4
20260902204525 67 142 2.0 9.0 0.00 0.00 0.00 63 1021.3
20260902203020 66 190 5.0 12.0 0.00 0.00 0.00 63 1021.3
20260902201518 66 134 4.0 12.0 0.00 0.00 0.00 63 1021.6
20260902200012 67 143 4.0 7.0 0.00 0.00 0.00 63 1021.7
20260902194509 67 187 5.0 10.0 0.00 0.00 0.00 63 1021.7
20260902193003 67 186 5.0 11.0 0.00 0.00 0.00 63 1022.1
20260902191558 67 154 2.0 9.0 0.00 0.00 0.00 63 1022.2
20260902190055 67 190 1.0 6.0 0.00 0.00 0.00 62 1022.4
20260902184557 67 163 3.0 7.0 0.00 0.00 0.00 62 1022.2
20260902183044 68 144 2.0 10.0 0.00 0.00 0.00 62 1022.0
20260902181543 68 71 3.0 7.0 0.00 0.00 0.00 62 1021.9
20260902180043 68 79 3.0 9.0 0.00 0.00 0.00 61 1022.1
20260902174531 67 112 4.0 9.0 0.00 0.00 0.00 62 1022.5
20260902173028 67 162 1.0 7.0 0.00 0.00 0.00 62 1022.6
20260902171523 66 153 1.0 8.0 0.00 0.00 0.00 61 1022.7
20260902170020 66 173 1.0 8.0 0.00 0.00 0.00 58 1022.7
20260902164513 66 245 2.0 6.0 0.00 0.00 0.00 58 1022.8
20260902163010 66 202 2.0 7.0 0.00 0.00 0.00 59 1022.8
20260902161508 66 143 1.0 10.0 0.00 0.00 0.00 56 1023.0
20260902160001 65 105 1.0 10.0 0.00 0.00 0.00 55 1023.2
20260902154557 65 211 2.0 10.0 0.00 0.00 0.00 52 1023.3
20260902153052 64 147 5.0 9.0 0.00 0.00 0.00 46 1023.4
20260902151547 63 138 1.0 5.0 0.00 0.00 0.00 35 1023.5
20260902150043 63 161 0.0 7.0 0.00 0.00 0.00 9 1023.7
20260902144539 62 162 1.0 9.0 0.00 0.00 0.00 1 1023.5
20260902143034 62 78 0.0 8.0 0.00 0.00 0.00 1 1023.2
20260902141530 61 134 3.0 10.0 0.00 0.00 0.00 1 1023.0
20260902140027 61 142 3.0 8.0 0.00 0.00 0.00 1 1022.9
20260902134535 61 136 3.0 8.0 0.00 0.00 0.00 1 1022.6
20260902133024 60 109 4.0 9.0 0.00 0.00 0.00 1 1022.6
20260902131517 60 120 1.0 8.0 0.00 0.00 0.00 1 1022.8
20260902130015 60 109 2.0 4.0 0.00 0.00 0.00 1 1022.9
20260902124508 60 109 2.0 4.0 0.00 0.00 0.00 1 1022.9
20260902123005 59 118 0.0 3.0 0.00 0.00 0.00 1 1022.7
20260902121612 59 118 1.0 3.0 0.00 0.00 0.00 1 1022.9
20260902120055 59 123 2.0 4.0 0.00 0.00 0.00 1 1022.9
20260902114551 59 125 1.0 2.0 0.00 0.00 0.00 1 1022.8
20260902113052 59 125 1.0 3.0 0.00 0.00 0.00 1 1022.9
20260902111548 59 125 1.0 3.0 0.00 0.00 0.00 1 1022.7
20260902110044 59 125 2.0 3.0 0.00 0.00 0.00 1 1022.6
20260902104538 58 126 2.0 4.0 0.00 0.00 0.00 1 1022.5
20260902103030 58 121 2.0 6.0 0.00 0.00 0.00 1 1022.3
20260902101527 59 123 3.0 6.0 0.00 0.00 0.00 1 1022.1
20260902100021 59 130 3.0 5.0 0.00 0.00 0.00 1 1022.1
20260902094515 60 144 2.0 7.0 0.00 0.00 0.00 6 1022.0
20260902093009 60 150 2.0 5.0 0.00 0.00 0.00 13 1021.9
20260902091505 60 146 1.0 4.0 0.00 0.00 0.00 14 1021.9
20260902090000 60 148 2.0 6.0 0.00 0.00 0.00 12 1021.8
20260902084602 60 155 0.0 3.0 0.00 0.00 0.00 9 1021.8
20260902083055 59 159 3.0 7.0 0.00 0.00 0.00 3 1021.9
20260902081556 60 176 3.0 6.0 0.00 0.00 0.00 5 1022.0
20260902080043 59 184 3.0 8.0 0.00 0.00 0.00 7 1022.0
20260902074538 60 192 2.0 6.0 0.00 0.00 0.00 21 1022.0
20260902073043 60 209 2.0 6.0 0.00 0.00 0.00 29 1021.8
20260902071529 60 184 2.0 5.0 0.00 0.00 0.00 34 1021.8
20260902070024 60 174 4.0 8.0 0.00 0.00 0.00 40 1021.6
20260902064520 61 155 3.0 6.0 0.00 0.00 0.00 35 1021.7
20260902063015 61 154 1.0 3.0 0.00 0.00 0.00 22 1021.5
20260902061513 61 154 1.0 3.0 0.00 0.00 0.00 5 1021.5
20260902060008 61 154 0.0 3.0 0.00 0.00 0.00 1 1021.4
20260902054504 61 154 2.0 3.0 0.00 0.00 0.00 1 1021.4
20260902053109 61 154 1.0 3.0 0.00 0.00 0.00 5 1021.2
20260902051556 62 154 0.0 2.0 0.00 0.00 0.00 9 1021.2
20260902050107 62 154 0.0 0.0 0.00 0.00 0.00 16 1021.0
20260902044549 62 154 0.0 0.0 0.00 0.00 0.00 22 1020.7
20260902043050 62 154 0.0 0.0 0.00 0.00 0.00 20 1020.4
20260902041544 62 154 0.0 2.0 0.00 0.00 0.00 25 1020.4
20260902040042 62 154 0.0 1.0 0.00 0.00 0.00 26 1020.3
20260902034537 62 154 1.0 5.0 0.00 0.00 0.00 25 1020.3
20260902033036 61 155 4.0 6.0 0.00 0.00 0.00 5 1020.0
20260902031527 61 161 3.0 6.0 0.00 0.00 0.00 1 1020.1
20260902030024 61 160 4.0 6.0 0.00 0.00 0.00 1 1020.1
20260902024518 61 182 2.0 5.0 0.00 0.00 0.00 1 1020.1
20260902023014 61 172 3.0 6.0 0.00 0.00 0.00 1 1019.9
20260902021509 62 157 2.0 6.0 0.00 0.00 0.00 2 1019.8
20260902020005 63 182 2.0 4.0 0.00 0.00 0.00 1 1020.0
20260902014601 63 188 1.0 4.0 0.00 0.00 0.00 5 1020.0
20260902013056 63 189 1.0 3.0 0.00 0.00 0.00 7 1019.9
20260902011554 64 189 0.0 1.0 0.00 0.00 0.00 6 1020.0
20260902010101 64 189 0.0 3.0 0.00 0.00 0.00 6 1019.9
20260902004542 64 195 1.0 4.0 0.00 0.00 0.00 9 1019.7
20260902003037 64 194 2.0 6.0 0.00 0.00 0.00 14 1019.3
20260902001532 65 206 3.0 7.0 0.00 0.00 0.00 18 1019.2
20260902000028 65 198 3.0 8.0 0.00 0.00 0.00 28 1019.1
20260901234522 65 210 3.0 5.0 0.00 0.00 0.00 46 1018.8
20260901233019 65 134 1.0 9.0 0.00 0.00 0.00 57 1018.5
20260901231515 66 134 3.0 9.0 0.00 0.00 0.00 55 1018.8
20260901230010 67 167 3.0 7.0 0.00 0.00 0.00 57 1018.9
20260901224505 67 136 2.0 6.0 0.00 0.00 0.00 59 1018.9
20260901223102 67 161 2.0 7.0 0.00 0.00 0.00 62 1018.7
20260901221601 67 157 1.0 5.0 0.00 0.00 0.00 63 1018.6
20260901220051 68 153 3.0 8.0 0.00 0.00 0.00 63 1018.4
20260901214557 69 165 5.0 10.0 0.00 0.00 0.00 62 1018.3
20260901213042 70 175 2.0 6.0 0.00 0.00 0.00 62 1018.2
20260901211538 70 154 1.0 5.0 0.00 0.00 0.00 62 1018.3